User: anonymous   Login
Location: Caltech
(34.1382°N, 118.1253°W)
Time: 00:51:34
(UTC-08:00)
Language:

Cosmos 1833 Rocket - Orbit

View from above orbital plane
View from above orbital plane
View from above satellite
View from above satellite

Ground track
Ground track

The orbit data is extracted from the following two-line orbital elements,

1 17590U 87027B   15061.52375482  .00000193  00000-0  12057-3 0  9996
2 17590 071.0025 113.8114 0004021 168.3629 191.7588 14.16683296445480
Epoch (UTC): 02 March 2015 12:34:12
Eccentricity: 0.0004021
inclination: 71.0025°
perigee height: 833 km
apogee height: 839 km
right ascension of ascending node: 113.8114°
argument of perigee: 168.3629°
revolutions per day: 14.16683296
mean anomaly at epoch: 191.7588°
orbit number at epoch: 44548

The dashed part of the orbit path shows where the satellite is in the earth's shadow,  

DLR